• Em Portugal
  • Lista de países
  • Para 7 dias
  • Temperatura da água
  • Mapas de satélite
  • Mapa do tempo
  • Widgets de tempo
  • user-avatar
    Iniciar Sessão

    Previsão horária em Encamp

    Hoje, 27 Maio, Domingo

    Tempo Temperatura Precipitação Vento Pressão Humidade
    00:00 +8°C° 0,1 mm 2 m/s 624 mmHg 79%
    01:00 +8°C° 0,1 mm 1 m/s 623 mmHg 78%
    02:00 +8°C° 0,1 mm 1 m/s 623 mmHg 76%
    03:00 +8°C° 0,1 mm 1 m/s 623 mmHg 74%
    04:00 +9°C° 0,1 mm 1 m/s 623 mmHg 74%
    05:00 +10°C° 0,1 mm 1 m/s 623 mmHg 74%
    06:00 +11°C° 0,1 mm 1 m/s 624 mmHg 74%
    07:00 +12°C° 0,2 mm 1 m/s 625 mmHg 69%
    08:00 +14°C° 0,2 mm 2 m/s 625 mmHg 63%
    09:00 +16°C° 0,2 mm 2 m/s 626 mmHg 58%
    10:00 +17°C° 0,4 mm 2 m/s 626 mmHg 57%
    11:00 +17°C° 0,4 mm 3 m/s 626 mmHg 55%
    12:00 +18°C° 0,4 mm 3 m/s 627 mmHg 54%
    13:00 +18°C° 1,4 mm 2 m/s 626 mmHg 58%
    14:00 +17°C° 1,4 mm 2 m/s 626 mmHg 62%
    15:00 +17°C° 1,4 mm 2 m/s 625 mmHg 66%
    16:00 +16°C° 1,2 mm 2 m/s 625 mmHg 71%
    17:00 +15°C° 1,2 mm 1 m/s 624 mmHg 77%
    18:00 +14°C° 1,2 mm 1 m/s 624 mmHg 82%
    19:00 +13°C° 0,6 mm 1 m/s 624 mmHg 84%
    20:00 +11°C° 0,6 mm 1 m/s 624 mmHg 87%
    21:00 +10°C° 0,6 mm 1 m/s 624 mmHg 90%
    22:00 +10°C° 0,3 mm 1 m/s 624 mmHg 91%
    23:00 +10°C° 0,3 mm 1 m/s 623 mmHg 93%

    Amanhã, 28 Maio, Segunda-feira

    Tempo Temperatura Precipitação Vento Pressão Humidade
    00:00 +9°C° 0,3 mm 1 m/s 623 mmHg 94%
    01:00 +9°C° 0,1 mm 1 m/s 623 mmHg 94%
    02:00 +9°C° 0,1 mm 1 m/s 623 mmHg 94%
    03:00 +8°C° 0,1 mm 1 m/s 623 mmHg 95%
    04:00 +9°C° 0,1 mm 1 m/s 623 mmHg 93%
    05:00 +9°C° 0,1 mm 1 m/s 623 mmHg 91%
    06:00 +10°C° 0,1 mm 1 m/s 623 mmHg 90%
    07:00 +11°C° 0,1 mm 1 m/s 624 mmHg 83%
    08:00 +13°C° 0,1 mm 1 m/s 624 mmHg 76%
    09:00 +14°C° 0,1 mm 2 m/s 625 mmHg 70%
    10:00 +14°C° 1,2 mm 2 m/s 625 mmHg 72%
    11:00 +14°C° 1,2 mm 2 m/s 625 mmHg 73%
    12:00 +13°C° 1,2 mm 3 m/s 625 mmHg 75%
    13:00 +13°C° 1,5 mm 3 m/s 625 mmHg 76%
    14:00 +13°C° 1,5 mm 3 m/s 625 mmHg 77%
    15:00 +13°C° 1,5 mm 3 m/s 624 mmHg 78%
    16:00 +13°C° 1,2 mm 2 m/s 624 mmHg 81%
    17:00 +12°C° 1,2 mm 2 m/s 624 mmHg 85%
    18:00 +10°C° 1,2 mm 2 m/s 624 mmHg 88%
    19:00 +9°C° 0,6 mm 2 m/s 624 mmHg 90%
    20:00 +9°C° 0,6 mm 1 m/s 624 mmHg 91%
    21:00 +9°C° 0,6 mm 1 m/s 624 mmHg 92%
    22:00 +8°C° 0,2 mm 1 m/s 624 mmHg 92%
    23:00 +8°C° 0,2 mm 1 m/s 624 mmHg 91%

    Depois de amanhã, 29 Maio, Terça-feira

    Tempo Temperatura Precipitação Vento Pressão Humidade
    00:00 +8°C° 0,2 mm 1 m/s 624 mmHg 91%
    01:00 +7°C° 0 mm 1 m/s 623 mmHg 91%
    02:00 +7°C° 0 mm 1 m/s 623 mmHg 92%
    03:00 +7°C° 0 mm 1 m/s 623 mmHg 93%
    04:00 +8°C° 0 mm 1 m/s 623 mmHg 92%
    05:00 +8°C° 0 mm 1 m/s 623 mmHg 90%
    06:00 +9°C° 0 mm 1 m/s 624 mmHg 89%
    07:00 +11°C° 0 mm 1 m/s 624 mmHg 81%
    08:00 +13°C° 0 mm 2 m/s 625 mmHg 73%
    09:00 +14°C° 0 mm 2 m/s 626 mmHg 65%
    10:00 +15°C° 0,4 mm 2 m/s 626 mmHg 65%
    11:00 +15°C° 0,4 mm 2 m/s 626 mmHg 64%
    12:00 +16°C° 0,4 mm 3 m/s 626 mmHg 63%
    13:00 +16°C° 1 mm 3 m/s 625 mmHg 65%
    14:00 +14°C° 1 mm 3 m/s 625 mmHg 66%
    15:00 +14°C° 1 mm 3 m/s 625 mmHg 68%
    16:00 +14°C° 0,9 mm 2 m/s 624 mmHg 72%
    17:00 +14°C° 0,9 mm 2 m/s 624 mmHg 76%
    18:00 +13°C° 0,9 mm 2 m/s 623 mmHg 80%
    19:00 +11°C° 0,2 mm 1 m/s 623 mmHg 84%
    20:00 +10°C° 0,2 mm 1 m/s 623 mmHg 88%
    21:00 +8°C° 0,2 mm 1 m/s 622 mmHg 93%
    22:00 +8°C° 0,3 mm 1 m/s 622 mmHg 93%
    23:00 +8°C° 0,3 mm 1 m/s 622 mmHg 93%

    30 Maio, Quarta-feira

    Tempo Temperatura Precipitação Vento Pressão Humidade
    00:00 +7°C° 0,3 mm 1 m/s 622 mmHg 93%
    01:00 +7°C° 0 mm 1 m/s 621 mmHg 92%
    02:00 +7°C° 0 mm 1 m/s 621 mmHg 92%
    03:00 +7°C° 0 mm 1 m/s 621 mmHg 92%
    04:00 +8°C° 0 mm 1 m/s 621 mmHg 90%
    05:00 +8°C° 0 mm 1 m/s 622 mmHg 88%
    06:00 +9°C° 0 mm 1 m/s 622 mmHg 87%
    07:00 +10°C° 0,1 mm 1 m/s 622 mmHg 82%
    08:00 +11°C° 0,1 mm 1 m/s 623 mmHg 77%
    09:00 +12°C° 0,1 mm 2 m/s 624 mmHg 73%
    10:00 +13°C° 0,3 mm 2 m/s 624 mmHg 70%
    11:00 +13°C° 0,3 mm 2 m/s 624 mmHg 68%
    12:00 +13°C° 0,3 mm 3 m/s 624 mmHg 66%
    13:00 +14°C° 1,2 mm 2 m/s 624 mmHg 68%
    14:00 +14°C° 1,2 mm 2 m/s 624 mmHg 71%
    15:00 +13°C° 1,2 mm 2 m/s 623 mmHg 73%
    16:00 +13°C° 1,2 mm 2 m/s 623 mmHg 77%
    17:00 +12°C° 1,2 mm 1 m/s 623 mmHg 80%
    18:00 +11°C° 1,2 mm 1 m/s 623 mmHg 84%
    19:00 +10°C° 0,5 mm 1 m/s 623 mmHg 87%
    20:00 +9°C° 0,5 mm 1 m/s 623 mmHg 90%
    21:00 +8°C° 0,5 mm 1 m/s 623 mmHg 93%
    22:00 +8°C° 0,6 mm 1 m/s 623 mmHg 93%
    23:00 +8°C° 0,6 mm 1 m/s 623 mmHg 94%

    31 Maio, Quinta-feira

    Tempo Temperatura Precipitação Vento Pressão Humidade
    00:00 +8°C° 0,6 mm 1 m/s 623 mmHg 94%
    01:00 +8°C° 0,3 mm 1 m/s 623 mmHg 94%
    02:00 +7°C° 0,3 mm 1 m/s 623 mmHg 94%
    03:00 +7°C° 0,3 mm 1 m/s 623 mmHg 93%
    04:00 +8°C° 0 mm 1 m/s 623 mmHg 92%
    05:00 +8°C° 0 mm 1 m/s 623 mmHg 91%
    06:00 +8°C° 0 mm 1 m/s 624 mmHg 90%
    07:00 +10°C° 0 mm 1 m/s 624 mmHg 83%
    08:00 +11°C° 0 mm 1 m/s 625 mmHg 76%
    09:00 +13°C° 0 mm 1 m/s 626 mmHg 70%
    10:00 +13°C° 0,1 mm 1 m/s 626 mmHg 70%
    11:00 +13°C° 0,1 mm 2 m/s 626 mmHg 70%
    12:00 +13°C° 0,1 mm 2 m/s 626 mmHg 70%
    13:00 +14°C° 0,4 mm 2 m/s 626 mmHg 71%
    14:00 +14°C° 0,4 mm 1 m/s 626 mmHg 72%
    15:00 +14°C° 0,4 mm 1 m/s 626 mmHg 73%
    16:00 +13°C° 0,4 mm 1 m/s 626 mmHg 77%
    17:00 +13°C° 0,4 mm 1 m/s 626 mmHg 80%
    18:00 +12°C° 0,4 mm 1 m/s 625 mmHg 84%
    19:00 +11°C° 0,2 mm 1 m/s 625 mmHg 88%
    20:00 +10°C° 0,2 mm 1 m/s 625 mmHg 92%
    21:00 +8°C° 0,2 mm 0 m/s 625 mmHg 95%
    22:00 +8°C° 0 mm 0 m/s 625 mmHg 95%
    23:00 +8°C° 0 mm 0 m/s 625 mmHg 95%

    1 Junho, Sexta-feira

    Tempo Temperatura Precipitação Vento Pressão Humidade
    00:00 +8°C° 0 mm 0 m/s 625 mmHg 96%
    01:00 +7°C° 0 mm 0 m/s 625 mmHg 95%
    02:00 +7°C° 0 mm 0 m/s 625 mmHg 95%
    03:00 +7°C° 0 mm 0 m/s 625 mmHg 95%
    04:00 +8°C° 0 mm 0 m/s 625 mmHg 93%
    05:00 +8°C° 0 mm 0 m/s 625 mmHg 90%
    06:00 +9°C° 0 mm 0 m/s 626 mmHg 88%
    07:00 +12°C° 0,1 mm 1 m/s 626 mmHg 80%
    08:00 +13°C° 0,1 mm 1 m/s 627 mmHg 73%
    09:00 +15°C° 0,1 mm 1 m/s 628 mmHg 65%
    10:00 +16°C° 0,9 mm 1 m/s 628 mmHg 66%
    11:00 +16°C° 0,9 mm 2 m/s 628 mmHg 67%
    12:00 +16°C° 0,9 mm 2 m/s 628 mmHg 67%
    13:00 +16°C° 1,6 mm 2 m/s 627 mmHg 69%
    14:00 +16°C° 1,6 mm 1 m/s 627 mmHg 71%
    15:00 +15°C° 1,6 mm 1 m/s 627 mmHg 73%
    16:00 +15°C° 0,8 mm 1 m/s 627 mmHg 76%
    17:00 +14°C° 0,8 mm 1 m/s 627 mmHg 79%
    18:00 +14°C° 0,8 mm 1 m/s 626 mmHg 81%
    19:00 +12°C° 0,4 mm 1 m/s 626 mmHg 85%
    20:00 +11°C° 0,4 mm 1 m/s 626 mmHg 88%
    21:00 +9°C° 0,4 mm 0 m/s 625 mmHg 91%
    22:00 +9°C° 0,1 mm 1 m/s 625 mmHg 91%
    23:00 +9°C° 0,1 mm 1 m/s 625 mmHg 90%
    Mostrar mais